IRIDIUM 106 1 41917U 17003A 26036.23298849 .00000078 00000+0 20830-4 0 9996 2 41917 86.4026 143.7106 0001823 88.9614 271.1791 14.34218080474297 IRIDIUM 103 1 41918U 17003B 26036.29008234 .00000443 00000+0 15101-3 0 9990 2 41918 86.4019 143.5871 0002504 94.1748 265.9734 14.34217698474327 IRIDIUM 109 1 41919U 17003C 26036.29641528 .00000444 00000+0 15144-3 0 9998 2 41919 86.4023 143.6418 0002130 95.7810 264.3629 14.34219245474295 IRIDIUM 102 1 41920U 17003D 26036.19492955 .00000303 00000+0 10107-3 0 9995 2 41920 86.4020 143.6105 0002088 99.8789 260.2643 14.34220323474367 IRIDIUM 105 1 41921U 17003E 26036.09500369 .00000371 00000+0 12486-3 0 9991 2 41921 86.3971 112.1294 0002211 98.1957 261.9490 14.34401768476206 IRIDIUM 104 1 41922U 17003F 26036.20761942 .00000372 00000+0 12568-3 0 9993 2 41922 86.4018 143.6456 0002466 100.7929 259.3544 14.34219223474358 IRIDIUM 114 1 41923U 17003G 26036.21395629 .00000450 00000+0 15353-3 0 9992 2 41923 86.4021 143.6269 0002338 97.4747 262.6715 14.34221553474337 IRIDIUM 108 1 41924U 17003H 26036.17248259 .00000137 00000+0 41901-4 0 9995 2 41924 86.3965 111.9845 0002103 101.0011 259.1421 14.34217132476186 IRIDIUM 112 1 41925U 17003J 26036.20127612 .00000319 00000+0 10691-3 0 9992 2 41925 86.4017 143.4805 0002188 100.5038 259.6404 14.34217939474356 IRIDIUM 111 1 41926U 17003K 26036.18859209 .00000385 00000+0 13039-3 0 9996 2 41926 86.4018 143.5533 0002163 96.0839 264.0603 14.34219100474339 IRIDIUM 113 1 42803U 17039A 26036.23832424 .00000074 00000+0 19327-4 0 9998 2 42803 86.3980 17.3043 0002364 89.9241 270.2225 14.34217972452279 IRIDIUM 123 1 42804U 17039B 26036.00072850 .00000038 00000+0 66627-5 0 9999 2 42804 86.3927 48.8789 0002358 85.1894 274.9571 14.34217598451001 IRIDIUM 120 1 42805U 17039C 26036.02267483 .00000347 00000+0 11670-3 0 9999 2 42805 86.3966 17.1939 0001963 84.6474 275.4946 14.34219199452237 IRIDIUM 115 1 42806U 17039D 26036.18199886 .00000513 00000+0 14647-3 0 9990 2 42806 86.4505 17.2378 0002284 76.8391 283.3065 14.43279889455228 IRIDIUM 118 1 42807U 17039E 26036.03244121 .00000003 00000+0 -61032-5 0 9995 2 42807 86.3926 48.8644 0002223 92.0302 268.1148 14.34217057451000 IRIDIUM 117 1 42808U 17039F 26036.26077428 .00000056 00000+0 13085-4 0 9996 2 42808 86.3926 48.7275 0002301 87.1182 273.0277 14.34217625451063 IRIDIUM 126 1 42809U 17039G 26036.00707033 .00000022 00000+0 94007-6 0 9999 2 42809 86.3926 48.8827 0002389 89.1763 270.9706 14.34217264451007 IRIDIUM 124 1 42810U 17039H 26035.90781166 .00000550 00000+0 15760-3 0 9990 2 42810 86.4531 345.6634 0002310 81.2632 278.8830 14.43278564456031 IRIDIUM 128 1 42811U 17039J 26036.06758733 .00000347 00000+0 11681-3 0 9995 2 42811 86.3922 80.4029 0002016 89.6432 270.4995 14.34216591451048 IRIDIUM 121 1 42812U 17039K 26036.30516893 .00000175 00000+0 55477-4 0 9993 2 42812 86.3929 48.7847 0002115 90.3950 269.7488 14.34217276450920 IRIDIUM 133 1 42955U 17061A 26036.02952252 .00000222 00000+0 72042-4 0 9998 2 42955 86.3922 80.5335 0002215 91.5425 268.6025 14.34217705435833 IRIDIUM 100 1 42956U 17061B 26036.02317971 .00000313 00000+0 10465-3 0 9993 2 42956 86.3922 80.4579 0002206 92.9554 267.1894 14.34219496435838 IRIDIUM 122 1 42957U 17061C 26036.06123500 .00000110 00000+0 32201-4 0 9999 2 42957 86.3922 80.4417 0002324 91.0695 269.0767 14.34218365435842 IRIDIUM 129 1 42958U 17061D 26036.08660544 .00000130 00000+0 39509-4 0 9996 2 42958 86.3922 80.4967 0002413 101.2639 258.8828 14.34218348435861 IRIDIUM 119 1 42959U 17061E 26036.05489239 .00000161 00000+0 50590-4 0 9991 2 42959 86.3922 80.5052 0002407 94.9563 265.1908 14.34218555435876 IRIDIUM 107 1 42960U 17061F 26036.07392016 .00000197 00000+0 63350-4 0 9998 2 42960 86.3925 80.5179 0002373 85.0479 275.0988 14.34218614435885 IRIDIUM 132 1 42961U 17061G 26036.08026212 .00000312 00000+0 10430-3 0 9991 2 42961 86.3921 80.4957 0002233 89.4611 270.6840 14.34217139435885 IRIDIUM 136 1 42962U 17061H 26036.11197571 .00000280 00000+0 92993-4 0 9992 2 42962 86.3923 80.4880 0002334 92.8895 267.2568 14.34217931435909 IRIDIUM 139 1 42963U 17061J 26036.04854902 .00000212 00000+0 68671-4 0 9994 2 42963 86.3923 80.5746 0002191 91.0763 269.0684 14.34218518435909 IRIDIUM 125 1 42964U 17061K 26036.03586353 .00000218 00000+0 70935-4 0 9998 2 42964 86.3926 80.6387 0002746 87.6274 272.5236 14.34217325435917 IRIDIUM 135 1 43070U 17083A 26036.21929645 .00000009 00000+0 -37154-5 0 9992 2 43070 86.3973 17.1573 0002220 88.4989 271.6461 14.34217713425234 IRIDIUM 138 1 43071U 17083B 26036.24466576 .00000368 00000+0 12425-3 0 9994 2 43071 86.3986 16.8219 0002575 91.1984 268.9507 14.34219387425229 IRIDIUM 116 1 43072U 17083C 26036.00364620 .00000247 00000+0 81249-4 0 9993 2 43072 86.3971 17.2351 0001884 83.0027 277.1383 14.34218001425222 IRIDIUM 130 1 43073U 17083D 26036.25100857 .00000092 00000+0 25649-4 0 9991 2 43073 86.3979 17.3938 0002088 80.7794 279.3638 14.34218071425207 IRIDIUM 151 1 43074U 17083E 26035.87679589 -.00000006 00000+0 -90926-5 0 9990 2 43074 86.3966 17.3426 0002057 85.9506 274.1925 14.34216430425175 IRIDIUM 134 1 43075U 17083F 26036.19392420 .00000131 00000+0 39819-4 0 9993 2 43075 86.3973 17.2166 0002236 84.2550 275.8900 14.34217572425184 IRIDIUM 137 1 43076U 17083G 26036.20660672 .00000307 00000+0 10241-3 0 9995 2 43076 86.3975 17.3013 0001720 91.9908 268.1485 14.34217448425251 IRIDIUM 141 1 43077U 17083H 26035.92119464 .00000051 00000+0 11080-4 0 9991 2 43077 86.3976 17.2591 0002262 89.3820 270.7635 14.34217782425212 IRIDIUM 153 1 43078U 17083J 26036.15244708 .00000415 00000+0 14103-3 0 9990 2 43078 86.4011 345.6679 0002462 84.9822 275.1655 14.34219878426359 IRIDIUM 131 1 43079U 17083K 26036.18758135 .00000355 00000+0 11987-3 0 9998 2 43079 86.3978 17.3246 0002240 89.8659 270.2794 14.34214151425189 IRIDIUM 144 1 43249U 18030A 26036.15878876 .00000222 00000+0 72190-4 0 9999 2 43249 86.4013 345.5977 0002041 82.5605 277.5823 14.34218637411211 IRIDIUM 149 1 43250U 18030B 26036.16513157 .00000271 00000+0 89646-4 0 9998 2 43250 86.4009 345.5634 0002245 86.0306 274.1146 14.34218407411239 IRIDIUM 157 1 43251U 18030C 26036.18415985 .00000035 00000+0 52687-5 0 9995 2 43251 86.4012 345.6062 0002128 86.1121 274.0318 14.34217622411212 IRIDIUM 140 1 43252U 18030D 26036.27295577 .00000207 00000+0 66900-4 0 9992 2 43252 86.4009 345.5815 0002148 83.2200 276.9240 14.34218581411289 IRIDIUM 145 1 43253U 18030E 26036.26026954 .00000414 00000+0 14088-3 0 9992 2 43253 86.4009 345.5592 0001901 78.6549 281.4861 14.34219413411210 IRIDIUM 146 1 43254U 18030F 26036.24124290 -.00000018 00000+0 -13536-4 0 9993 2 43254 86.4004 345.5803 0001950 83.6298 276.5120 14.34217945411224 IRIDIUM 148 1 43255U 18030G 26036.27929776 .00000510 00000+0 17518-3 0 9997 2 43255 86.4006 345.6044 0002229 87.2178 272.9273 14.34220126411260 IRIDIUM 142 1 43256U 18030H 26036.17781641 .00000403 00000+0 13672-3 0 9992 2 43256 86.4006 345.5414 0001895 78.4788 281.6621 14.34219402411212 IRIDIUM 150 1 43257U 18030J 26036.14609838 .00000426 00000+0 14501-3 0 9994 2 43257 86.4012 345.6664 0002172 82.9195 277.2248 14.34217169411235 IRIDIUM 143 1 43258U 18030K 26036.19684418 .00000247 00000+0 80970-4 0 9992 2 43258 86.4016 345.7326 0002042 80.0135 280.1291 14.34218006411170 IRIDIUM 161 1 43478U 18047C 26036.23241957 .00000573 00000+0 16422-3 0 9998 2 43478 86.4540 143.6352 0002199 97.0182 263.1269 14.43282430406108 IRIDIUM 152 1 43479U 18047D 26036.16956384 .00000235 00000+0 76984-4 0 9993 2 43479 86.4012 143.5206 0002274 97.7082 262.4372 14.34218680403560 IRIDIUM 147 1 43480U 18047E 26036.17590555 .00000063 00000+0 15537-4 0 9996 2 43480 86.4016 143.5210 0001963 95.9762 264.1658 14.34218355403565 IRIDIUM 110 1 43481U 18047F 26036.25201843 .00000443 00000+0 15101-3 0 9993 2 43481 86.4020 143.5777 0002466 104.5753 255.5716 14.34219040403566 IRIDIUM 162 1 43482U 18047G 26036.29543087 .00000639 00000+0 18403-3 0 9992 2 43482 86.4542 143.5005 0002270 91.5140 268.6321 14.43276627406102 IRIDIUM 160 1 43569U 18061A 26036.12808417 .00000336 00000+0 11284-3 0 9991 2 43569 86.3970 112.0355 0002257 100.1552 259.9899 14.34219421394445 IRIDIUM 166 1 43570U 18061B 26036.15345414 .00000017 00000+0 -11432-5 0 9993 2 43570 86.3970 111.9768 0001929 96.3075 263.8341 14.34217835394470 IRIDIUM 158 1 43571U 18061C 26036.12174193 .00000227 00000+0 73923-4 0 9999 2 43571 86.3958 111.9994 0002370 92.7556 267.3912 14.34218706394430 IRIDIUM 165 1 43572U 18061D 26036.21688302 .00000370 00000+0 12513-3 0 9998 2 43572 86.3969 112.0043 0002072 95.7927 264.3505 14.34219238394474 IRIDIUM 155 1 43573U 18061E 26036.10905673 .00000085 00000+0 23355-4 0 9990 2 43573 86.3970 111.9250 0002150 91.7584 268.3858 14.34217913394425 IRIDIUM 154 1 43574U 18061F 26036.09003970 .00000336 00000+0 11306-3 0 9999 2 43574 86.3969 112.0599 0002020 96.5189 263.6237 14.34220594394475 IRIDIUM 163 1 43575U 18061G 26036.21053861 .00000358 00000+0 12071-3 0 9992 2 43575 86.3967 111.9292 0002298 95.9666 264.1792 14.34219867394464 IRIDIUM 156 1 43576U 18061H 26036.18516777 .00000195 00000+0 62423-4 0 9995 2 43576 86.3965 111.9467 0002160 90.2501 269.8943 14.34218316394458 IRIDIUM 164 1 43577U 18061J 26036.09637046 .00000259 00000+0 85584-4 0 9993 2 43577 86.3968 112.0221 0001985 99.8532 260.2888 14.34218263394482 IRIDIUM 159 1 43578U 18061K 26036.20420461 .00000376 00000+0 12704-3 0 9991 2 43578 86.3967 111.9168 0002269 99.4471 260.6982 14.34216723394460 IRIDIUM 180 1 43922U 19002A 26036.27345468 -.00000028 00000+0 -17130-4 0 9995 2 43922 86.3923 48.7263 0002234 94.4540 265.6911 14.34215803370089 IRIDIUM 176 1 43923U 19002B 26036.30165235 .00000540 00000+0 81727-4 0 9992 2 43923 86.6050 48.6766 0002464 89.5587 270.5912 14.72250481379844 IRIDIUM 168 1 43924U 19002C 26035.98804318 .00000017 00000+0 -90008-6 0 9992 2 43924 86.3929 48.9192 0002255 90.8046 269.3408 14.34217741370023 IRIDIUM 173 1 43925U 19002D 26036.32419962 .00000096 00000+0 27331-4 0 9992 2 43925 86.3925 48.6726 0002340 88.2288 271.9176 14.34218038370058 IRIDIUM 169 1 43926U 19002E 26036.09628102 .00000358 00000+0 11052-3 0 9998 2 43926 86.4177 80.4327 0002750 76.6511 283.4994 14.38610707371235 IRIDIUM 172 1 43927U 19002F 26036.31785792 .00000084 00000+0 22819-4 0 9993 2 43927 86.3926 48.6828 0002273 94.9154 265.2302 14.34217859370063 IRIDIUM 175 1 43928U 19002G 26036.22903398 .00001194 00000+0 18547-3 0 9993 2 43928 86.1538 348.0518 0001261 75.1410 284.9946 14.72252737379827 IRIDIUM 171 1 43929U 19002H 26036.01975427 .00000150 00000+0 46448-4 0 9996 2 43929 86.3936 49.0995 0002045 86.5827 273.5602 14.34217467370012 IRIDIUM 170 1 43930U 19002J 26036.03597024 .00000499 00000+0 75217-4 0 9995 2 43930 86.6048 48.7912 0002365 93.0293 267.1195 14.72247933379817 IRIDIUM 167 1 43931U 19002K 26036.01340009 .00000182 00000+0 57888-4 0 9996 2 43931 86.3925 48.8315 0002081 81.0484 279.0947 14.34219145370013 IRIDIUM 181 1 56726U 23068S 26036.17262250 .00000455 00000+0 12933-3 0 9991 2 56726 86.4504 111.9966 0002026 104.7126 255.4300 14.43308343143391 IRIDIUM 177 1 56727U 23068T 26036.29664464 .00000761 00000+0 96692-4 0 9993 2 56727 86.1950 31.4044 0002392 89.0811 271.0684 14.80224625146853 IRIDIUM 174 1 56728U 23068U 26036.29546445 .00000590 00000+0 89679-4 0 9999 2 56728 86.6058 48.8166 0002537 92.4090 267.7418 14.72248243146617 IRIDIUM 178 1 56729U 23068V 26036.08296355 .00001430 00000+0 18476-3 0 9999 2 56729 86.6495 80.5854 0001960 82.9062 277.2382 14.80237005146824 IRIDIUM 179 1 56730U 23068W 26036.07757708 .00001446 00000+0 18683-3 0 9991 2 56730 86.6742 89.1800 0002262 91.5281 268.6199 14.80241004146826